Flag for U.S.A. Weather past 2 weeks in Menominee, Michigan, U.S.A.

Now
34 °F

Overcast.


Feels Like: 29 °F
Forecast: 29 / 44 °F
Wind: 6 mph from East

Location: Menominee Weather Reporting Station

Current Time: Mar 31, 2015 at 3:32:25 AM

Latest Report: Mar 31, 2015 at 2:55 AM


Visibility: 10 mi

Pressure: 29.83 "Hg

Humidity: 75%

Dew point: 27 °F

Location of MenomineeLocation

Historic Weather in Menominee — Graph

°F

Menominee temperature yesterday

Maximum temperature yesterday: 54 °F (at 2:35 PM)
Minimum temperature yesterday: 36 °F (at 12:55 AM)
Average temperature yesterday: 40 °F

Past Weeks' High & Low Weather Summary

 TemperatureHumidityPressure
High55 °F (Mar 16, 11:15 AM)93% (Mar 19, 2:35 AM)30.38 "Hg (Mar 19, 2:35 AM)
Low9 °F (Mar 28, 6:35 AM)22% (Mar 17, 4:15 PM)29.51 "Hg (Mar 29, 3:55 PM)
Average32 °F60%30.09 "Hg
* Reported Mar 16 2:15 AM — Mar 31 2:15 AM, Menominee, Weather by CustomWeather, © 2015

Note: Actual official high and low records may vary slightly from our data, if they occured in-between our weather recording intervals... More about our weather records

Advertising

Menominee weather history for previous 24 hours

 ConditionsComfort  
Time TempWeatherWind HumidityBarometerVisibility
2:15 AM
Tue, Mar 31
34 °FOvercast.8 mph70%29.83 "Hg10 mi
1:55 AM34 °FOvercast.3 mph70%29.84 "Hg10 mi
1:35 AM34 °FPassing clouds.6 mph70%29.84 "Hg10 mi
1:15 AM34 °FOvercast.6 mph75%29.84 "Hg10 mi
12:55 AM34 °FOvercast.5 mph75%29.84 "Hg10 mi
12:35 AM34 °FOvercast.7 mph81%29.85 "Hg10 mi
12:15 AM34 °FMostly cloudy.8 mph75%29.85 "Hg10 mi
11:55 PM
Mon, Mar 30
36 °FMostly cloudy.7 mph70%29.86 "Hg10 mi
11:35 PM36 °FOvercast.12 mph75%29.86 "Hg10 mi
11:15 PM36 °FMostly cloudy.9 mph70%29.86 "Hg10 mi
10:55 PM36 °FMostly cloudy.12 mph70%29.86 "Hg10 mi
10:35 PM36 °FMostly cloudy.8 mph70%29.86 "Hg10 mi
10:15 PM36 °FOvercast.12 mph70%29.86 "Hg10 mi
9:55 PM36 °FOvercast.9 mph70%29.86 "Hg10 mi
9:35 PM36 °FOvercast.5 mph70%29.86 "Hg10 mi
9:15 PM36 °FPassing clouds.5 mph70%29.86 "Hg10 mi
8:55 PM36 °FPassing clouds.5 mph75%29.86 "Hg10 mi
8:35 PM36 °FMostly cloudy.3 mph75%29.86 "Hg10 mi
8:15 PM36 °FMostly cloudy.No wind75%29.86 "Hg10 mi
7:55 PM36 °FOvercast.6 mph75%29.85 "Hg10 mi
7:35 PM36 °FPassing clouds.6 mph70%29.84 "Hg10 mi
7:15 PM37 °FPartly cloudy.10 mph70%29.84 "Hg10 mi
6:55 PM37 °FMostly cloudy.9 mph70%29.85 "Hg10 mi
6:35 PM37 °FPartly sunny.10 mph70%29.86 "Hg10 mi
6:15 PM39 °FScattered clouds.12 mph65%29.86 "Hg10 mi
5:55 PM39 °FPassing clouds.12 mph65%29.86 "Hg10 mi
5:35 PM41 °FSunny.14 mph61%29.86 "Hg10 mi
5:15 PM41 °FSunny.10 mph61%29.86 "Hg10 mi
4:55 PM43 °FSunny.12 mph57%29.86 "Hg10 mi
4:35 PM45 °FSunny.13 mph53%29.87 "Hg10 mi
4:15 PM45 °FSunny.13 mph53%29.87 "Hg10 mi
3:55 PM46 °FSunny.10 mph43%29.88 "Hg10 mi
3:35 PM46 °FSunny.10 mph43%29.88 "Hg10 mi
3:15 PM46 °FSunny.15 mph43%29.89 "Hg10 mi
2:55 PM48 °FPassing clouds.14 mph43%29.89 "Hg10 mi
2:35 PM54 °FPassing clouds.3 mph28%29.89 "Hg10 mi
2:15 PM52 °FSunny.5 mph30%29.89 "Hg10 mi
1:55 PM52 °FSunny.8 mph30%29.89 "Hg10 mi
1:35 PM52 °FSunny.7 mph30%29.90 "Hg10 mi
1:15 PM52 °FSunny.14 mph32%29.90 "Hg10 mi
12:55 PM50 °FSunny.12 mph35%29.91 "Hg10 mi
12:35 PM48 °FSunny.10 mph37%29.90 "Hg10 mi
12:15 PM48 °FSunny.8 mph40%29.90 "Hg10 mi
11:55 AM48 °FSunny.10 mph40%29.90 "Hg10 mi
11:35 AM46 °FSunny.10 mph43%29.90 "Hg10 mi
11:15 AM46 °FSunny.10 mph43%29.90 "Hg10 mi
10:55 AM45 °FSunny.10 mph49%29.90 "Hg10 mi
10:35 AM45 °FSunny.14 mph53%29.89 "Hg10 mi
10:15 AM45 °FSunny.17 mph49%29.89 "Hg10 mi
9:55 AM45 °FPassing clouds.20 mph49%29.88 "Hg10 mi
9:35 AM45 °FPassing clouds.10 mph53%29.88 "Hg10 mi
9:15 AM43 °FSunny.12 mph53%29.87 "Hg10 mi
8:55 AM41 °FSunny.10 mph57%29.87 "Hg10 mi
8:35 AM39 °FSunny.6 mph61%29.86 "Hg10 mi
8:15 AM39 °FSunny.7 mph61%29.86 "Hg10 mi
7:55 AM37 °FSunny.9 mph65%29.85 "Hg10 mi
7:35 AM36 °FSunny.8 mph70%29.85 "Hg10 mi
7:15 AM36 °FSunny.8 mph65%29.83 "Hg10 mi
6:55 AM36 °FSunny.7 mph70%29.83 "Hg10 mi
6:35 AM36 °FSunny.8 mph70%29.81 "Hg10 mi
6:15 AM36 °FClear.9 mph70%29.80 "Hg10 mi
5:55 AM36 °FClear.8 mph65%29.79 "Hg10 mi
5:35 AM36 °FClear.9 mph70%29.79 "Hg10 mi
4:55 AM36 °FClear.9 mph70%29.78 "Hg10 mi
4:35 AM36 °FClear.12 mph70%29.78 "Hg10 mi
4:15 AM36 °FClear.7 mph70%29.78 "Hg10 mi
3:55 AM36 °FClear.7 mph70%29.78 "Hg10 mi
3:35 AM36 °FClear.7 mph70%29.78 "Hg10 mi
3:15 AM36 °FClear.6 mph70%29.78 "Hg10 mi
Weather by CustomWeather, © 2015

See weather overviewHow to use our weather pages